EHI
0 0 0 0 0 0 0 0 0 0 0 0 0 0 0 0 0 0 0 0 0 1 0 0 0 0 0 0 0 0 0 0 0 0 0 0 0 0 0 0 0 0 0
0 0 0 0 0 0 0 0 0 0 0 0 0 0 0 0 0 0 0 0 0 1 1 1 0 0 0 0 0 0 0 0 0 0 0 0 0 0 0 0 0 0 0
0 0 0 0 0 0 0 0 0 1 0 0 0 0 0 0 0 0 0 0 0 1 2 2 1 0 0 0 0 0 0 0 0 1 1 0 0 0 0 0 0 0 0
0 0 0 0 0 0 0 0 0 0 0 0 0 0 0 0 0 0 0 0 0 0 1 2 1 0 0 0 0 0 0 0 0 1 1 0 0 0 0 0 0 0 0
0 0 0 0 0 0 0 0 0 0 0 0 0 0 0 0 0 0 0 0 0 0 0 1 1 0 0 0 0 1 1 1 1 1 1 1 1 0 0 0 0 0 0
0 0 0 0 0 0 0 0 0 0 0 0 0 0 0 0 0 0 0 0 0 0 0 0 0 0 0 0 0 2 3 3 1 0 0 1 2 1 0 0 0 0 0
0 0 0 0 0 0 0 0 0 0 0 0 0 0 0 0 0 0 0 0 0 0 0 0 0 0 0 0 0 1 3 3 1 0 0 1 2 2 1 0 0 0 0
0 0 0 0 0 0 0 0 0 0 0 0 0 0 0 0 0 0 0 0 0 0 0 0 1 0 0 0 0 1 2 2 1 0 0 1 2 2 1 0 0 0 0
0 0 0 0 0 0 0 0 0 0 0 0 0 0 0 0 0 0 0 0 0 0 0 0 0 0 0 0 0 0 1 1 0 0 0 0 1 1 0 0 0 0 0
0 0 0 0 0 0 0 0 0 0 0 0 0 0 0 0 0 0 0 0 0 0 0 0 0 0 0 0 0 0 0 0 0 0 0 0 0 0 0 0 0 0 0
0 0 0 0 0 0 0 0 0 0 0 0 0 0 0 0 0 0 0 0 0 0 0 0 0 0 0 0 0 0 0 0 0 0 0 0 0 0 0 0 0 0 0
0 0 0 0 0 0 0 0 0 0 0 0 0 0 0 0 0 0 0 0 0 0 0 0 0 0 0 0 0 0 0 0 0 0 0 0 0 0 0 0 0 0 0
0 0 0 0 0 0 0 0 0 0 0 0 0 0 0 0 0 0 0 0 0 0 0 0 0 0 0 1 0 0 0 0 0 0 0 0 0 0 0 0 0 0 0
0 0 0 0 0 0 0 0 0 0 0 0 0 0 0 0 0 0 0 0 0 0 0 0 0 0 0 0 0 0 0 0 0 0 0 0 0 0 0 0 0 0 0
0 0 0 0 0 0 0 0 0 0 0 0 0 0 0 0 0 0 0 0 0 0 0 0 0 0 0 0 0 0 0 0 0 0 0 0 0 0 0 0 0 0 0
0 0 0 0 0 0 0 0 0 0 0 0 0 0 0 0 0 0 0 0 0 0 0 0 0 0 0 0 0 0 0 0 0 0 0 0 0 0 0 0 0 0 0
0 0 0 0 0 0 0 0 0 0 0 0 0 0 0 0 0 0 0 0 0 0 0 0 0 0 0 0 0 0 0 0 0 0 0 0 0 0 0 0 0 0 0
0 0 0 0 0 0 0 0 0 0 0 0 0 0 0 0 0 0 0 0 0 0 0 0 0 0 0 0 0 0 0 0 0 0 0 0 0 0 0 0 0 0 0
0 0 0 0 0 0 0 0 0 0 0 0 0 0 0 0 0 0 0 0 0 0 0 0 0 0 0 0 0 0 0 0 0 0 0 0 0 0 0 0 0 0 0
0 0 0 0 0 0 0 0 0 0 0 0 0 0 0 0 0 0 0 0 0 0 0 0 0 0 0 0 0 0 0 0 0 0 0 0 0 0 0 0 0 0 0
0 0 0 0 0 0 0 0 0 0 0 0 0 0 0 0 0 0 0 0 0 0 0 0 0 0 0 0 0 0 0 0 0 0 0 0 0 0 0 0 0 0 0
0 0 0 0 0 0 0 0 0 0 0 0 0 0 0 0 0 0 0 0 0 0 0 0 0 0 0 0 0 0 0 0 0 0 0 0 0 0 0 0 0 0 0
0 0 0 0 0 0 0 0 0 0 0 0 0 0 0 0 0 0 0 0 0 0 0 0 0 0 0 0 0 0 0 0 0 0 0 0 0 0 0 0 0 0 0
0 0 0 0 0 0 0 0 0 0 0 0 0 0 0 0 0 0 0 0 0 0 0 0 0 0 0 0 0 0 0 0 0 0 0 0 0 0 0 0 0 0 0
0 0 0 0 0 0 0 0 0 0 0 0 0 0 0 0 0 0 0 0 0 0 0 0 0 0 0 0 0 0 0 0 0 0 0 0 0 0 0 0 0 0 0
0 0 0 0 0 0 0 0 0 0 0 0 0 0 0 0 0 0 0 0 0 0 0 0 0 0 0 0 0 0 0 0 0 0 0 0 0 0 0 0 0 0 0
Wind_Speed
2 2 2 1 2 1 1 1 2 3 3 3 3 4 3 3 3 2 3 6 7 8 7 7 6 7 8 8 8 8 8 8 8 8 8 8 9 10 9 9 9 10 10
1 2 2 2 2 2 2 2 2 2 2 2 3 3 3 3 3 2 3 5 8 8 8 7 7 8 9 9 9 8 9 9 8 9 9 9 9 10 10 9 10 10 10
2 2 2 3 2 2 3 2 3 2 2 2 3 3 3 2 3 3 3 4 5 8 9 8 8 8 10 10 10 9 9 9 9 9 10 9 10 10 10 10 10 10 10
4 2 2 3 3 2 2 2 1 2 2 1 1 2 2 2 3 3 2 3 3 4 7 9 8 8 10 10 10 10 10 9 9 9 10 10 10 10 10 10 10 10 10
5 3 2 2 3 2 2 3 2 1 2 2 2 2 2 2 2 3 2 3 3 4 4 7 9 9 9 10 10 10 10 10 10 10 10 10 10 10 10 10 10 10 9
4 3 2 3 3 2 2 3 3 2 2 2 4 2 2 2 2 2 2 1 1 3 5 6 5 6 9 10 10 10 10 10 10 10 11 11 11 11 10 10 10 10 10
3 3 3 3 2 2 2 3 2 3 2 2 1 2 2 2 2 2 1 1 1 1 3 5 4 4 5 9 10 11 11 11 10 10 11 12 11 11 11 10 11 11 11
3 4 3 2 3 2 2 3 2 2 2 2 1 1 1 1 1 2 1 1 0 0 1 3 3 4 4 4 7 11 10 10 10 11 11 12 12 12 11 11 11 11 11
2 2 3 3 3 2 1 2 1 1 2 2 1 0 0 0 1 1 1 1 1 0 0 1 2 3 4 4 5 8 10 9 9 11 11 12 12 12 12 12 11 11 11
2 1 3 3 2 1 1 2 1 1 1 1 2 1 1 0 1 0 1 0 1 1 1 1 1 2 3 4 5 8 10 9 9 10 11 11 12 12 12 12 12 12 11
1 1 1 3 2 1 1 1 1 1 1 1 1 1 1 1 0 1 0 1 1 1 1 1 1 1 2 3 4 7 10 9 9 9 10 10 11 12 12 13 13 12 12
1 1 2 2 2 1 1 1 2 1 1 1 1 1 0 0 0 0 0 0 1 1 1 1 0 1 2 3 5 9 9 9 9 8 8 9 9 11 12 13 13 13 13
1 1 2 2 1 2 2 1 2 1 1 1 1 1 1 1 0 0 0 0 1 1 0 0 1 1 2 2 3 8 8 9 9 8 8 7 8 9 10 12 13 13 13
1 1 2 1 1 1 2 1 1 2 1 1 2 1 1 1 0 0 1 0 0 1 0 0 0 1 1 2 3 6 5 8 9 9 9 8 8 8 8 9 10 12 12
1 2 2 2 1 1 1 1 1 1 1 1 1 1 1 1 0 0 0 1 1 0 1 1 0 0 1 1 4 4 4 7 9 9 9 9 8 8 8 8 8 9 9
2 2 2 2 1 1 1 1 1 1 1 1 1 1 1 1 1 0 1 1 1 1 1 1 1 1 1 1 4 3 3 8 10 10 10 9 9 8 8 8 8 8 9
2 1 1 1 2 2 1 1 0 1 1 1 1 1 1 1 1 1 1 1 1 1 1 1 1 1 2 2 2 2 2 3 5 10 10 10 9 9 9 8 8 8 9
1 1 1 1 2 2 2 1 1 1 1 1 1 0 1 0 1 1 1 1 1 1 1 1 1 1 1 2 2 2 2 3 3 8 10 10 10 9 9 9 9 9 9
2 1 1 1 1 1 2 1 1 1 0 0 0 0 0 1 0 0 1 1 1 1 1 1 1 1 1 1 1 1 1 1 2 5 8 10 10 10 10 9 9 9 9
2 2 1 1 1 2 2 2 2 1 1 1 1 1 1 1 1 1 0 0 0 0 0 1 1 1 0 1 1 1 1 1 1 2 3 5 8 10 10 10 10 10 10
2 2 2 2 2 2 3 3 4 3 2 1 1 1 1 2 3 1 0 0 1 0 0 0 1 0 1 0 1 1 1 1 1 1 1 2 3 4 6 8 10 11 11
1 1 1 2 2 2 4 5 4 3 3 1 1 0 1 2 2 2 1 1 1 1 1 1 1 1 1 1 1 1 1 0 1 1 1 2 2 3 4 5 8 11 11
0 1 1 1 1 2 3 4 5 3 3 2 1 0 0 1 2 1 1 2 2 3 3 2 1 2 1 1 1 1 1 1 2 2 0 2 2 3 3 4 8 11 12
1 1 1 0 1 1 1 3 5 3 2 1 1 0 0 1 2 1 0 1 1 1 2 1 1 1 1 1 1 1 2 1 2 2 2 2 2 3 3 2 7 10 11
1 1 1 1 1 1 0 1 3 2 2 1 0 1 1 2 3 4 1 1 1 1 1 1 1 1 2 2 1 0 1 1 2 2 2 2 2 2 2 3 4 8 9
2 2 2 2 1 1 1 1 2 2 2 1 1 2 3 3 4 4 2 1 1 1 1 1 1 2 2 2 3 3 3 2 1 2 1 1 1 0 2 2 1 2 4
Wind_Direction
337 336 324 331 312 310 284 255 248 238 233 246 237 232 231 227 239 189 156 173 182 186 189 192 190 179 176 171 168 165 162 160 161 161 157 154 152 149 147 147 145 144 143
341 332 324 330 321 320 302 281 270 248 226 230 240 238 242 232 245 213 171 179 193 192 191 196 194 188 181 178 175 171 166 164 165 166 163 159 157 155 155 154 152 151 149
345 357 352 336 330 324 323 317 310 312 271 236 232 235 239 236 245 236 194 182 191 198 195 196 196 190 185 182 181 177 173 169 168 167 164 161 160 159 159 160 160 160 157
355 6 348 327 329 332 335 316 309 316 307 297 261 244 233 220 241 239 218 204 191 190 193 194 192 190 187 185 185 182 179 174 169 168 166 163 163 163 164 165 163 162 161
346 358 341 328 330 340 333 318 341 333 316 310 279 241 226 202 231 243 231 230 204 181 174 185 188 188 186 185 185 183 178 176 175 175 171 168 167 166 167 169 168 166 166
342 351 329 334 347 349 329 321 319 314 294 286 285 278 227 199 206 233 247 256 231 190 167 168 179 188 187 184 183 181 178 177 180 182 179 177 173 172 174 175 172 171 170
348 338 332 332 338 324 315 320 323 321 312 301 315 318 275 199 177 211 235 272 256 197 161 165 171 169 182 187 184 180 181 181 185 187 185 181 178 176 178 178 177 176 174
1 342 342 330 320 317 324 319 321 319 311 322 345 333 323 342 290 216 204 203 259 34 167 176 165 161 167 165 184 182 181 183 187 190 189 184 181 181 181 181 182 182 181
358 335 324 317 314 318 314 305 315 316 296 308 333 116 116 251 287 279 203 167 192 155 261 226 185 165 162 160 167 180 177 179 186 191 192 188 186 185 184 183 185 185 184
359 328 316 311 305 312 327 314 325 307 284 297 312 308 291 150 147 328 326 289 210 178 177 258 213 175 152 150 154 164 173 179 186 191 189 188 189 187 187 188 189 188 188
312 320 310 300 305 306 297 292 309 299 284 274 289 309 321 333 350 123 186 295 306 272 173 246 228 139 142 141 152 162 168 175 181 187 191 192 191 192 193 193 194 194 194
306 350 328 323 332 333 318 305 283 273 251 260 274 297 312 332 324 56 183 245 253 276 257 213 198 148 140 140 155 158 170 178 182 185 187 191 195 199 200 198 199 199 199
335 343 343 327 334 323 309 290 285 263 241 235 233 242 282 284 266 61 50 327 288 273 230 239 196 143 130 127 138 157 175 180 184 187 186 188 195 201 204 204 204 204 205
308 314 310 313 327 318 312 305 272 259 235 240 239 214 232 264 291 180 146 118 343 321 343 211 77 116 118 124 151 169 185 187 188 191 191 191 194 200 205 206 206 206 207
314 342 338 342 342 347 343 340 317 332 339 287 290 288 239 230 199 269 81 146 149 199 277 227 72 157 143 137 164 185 190 193 192 195 195 195 197 198 203 208 209 209 209
335 332 347 342 359 21 11 20 337 324 312 239 215 229 239 216 159 185 203 219 165 165 234 267 249 221 195 183 189 199 201 189 194 197 197 196 198 199 203 207 208 210 212
312 324 340 342 12 18 18 58 301 335 310 301 285 215 246 221 177 210 204 199 194 176 206 265 273 215 188 182 179 203 189 192 196 200 200 201 202 203 204 209 212 213 215
311 324 5 35 34 18 16 23 14 324 299 326 312 325 290 276 171 213 196 208 198 187 175 218 252 240 210 195 189 202 201 201 194 196 198 200 204 206 207 210 214 215 216
334 336 29 49 30 20 18 5 7 343 301 201 172 120 358 20 77 209 198 213 222 208 169 189 226 239 236 205 187 224 218 203 209 195 197 202 206 209 211 214 216 216 217
334 345 22 53 38 29 17 5 353 339 10 44 52 70 59 56 50 23 10 326 308 102 246 218 217 223 223 228 168 196 245 250 240 213 196 196 205 211 215 217 218 219 221
334 9 16 20 28 36 24 18 354 347 2 28 27 56 90 109 104 111 104 339 343 267 251 231 245 257 237 189 189 204 200 257 282 222 183 205 196 206 215 221 222 222 221
338 13 16 17 31 34 30 28 9 335 331 355 43 86 146 149 152 148 159 195 204 221 234 232 239 239 246 210 177 173 157 143 281 265 147 249 208 214 218 211 214 215 217
192 339 346 21 63 53 37 13 357 330 312 324 1 64 14 109 137 162 192 202 224 244 237 225 230 244 257 231 184 204 210 213 238 239 192 255 242 238 231 222 213 213 217
167 216 249 262 120 90 52 354 338 307 290 294 267 204 204 86 72 72 224 210 218 254 256 220 213 240 261 246 197 211 215 256 280 259 192 229 246 246 247 227 222 218 219
208 215 221 222 204 149 130 353 351 306 293 293 331 55 65 72 59 48 36 301 257 269 256 147 197 259 275 279 238 168 221 223 271 267 223 210 242 264 266 248 231 220 221
204 213 221 221 193 142 136 45 358 317 320 334 40 82 73 68 60 45 35 12 359 324 354 358 323 296 271 253 233 203 202 214 238 259 228 181 248 295 293 272 228 211 226